Wind_Speed
23 24 24 25 26 26 25 24 24 25 26 26 26 26 26 25 24 23 23 23 23 23 23 24 24 23 22 22 22 21 21 21 21 20 20 20 19 19 19 19 20 20 20 20 21 21 21 22 22 23 24 24 24 24 24 24 24 24 24 24 24 23 22 21 20 19 19 18 17 16 15 14 12 11 11 13 14 15 16 16 17 17 18 18 19 19
24 24 25 25 25 25 23 22 22 23 24 25 25 25 25 24 24 23 22 21 21 21 21 21 21 21 20 20 20 20 21 21 21 21 22 21 21 22 22 23 23 24 24 24 24 23 22 22 22 23 23 24 23 23 23 23 23 23 23 23 23 22 20 19 18 17 16 16 16 15 15 15 15 15 15 16 16 17 17 17 17 18 18 19 19 19
25 25 25 25 24 23 21 21 21 22 22 23 24 24 24 23 22 22 21 21 20 19 18 19 19 19 19 19 20 20 21 22 22 22 23 23 23 23 24 24 24 24 24 24 24 24 23 22 22 23 23 23 23 22 22 22 22 23 23 23 23 22 20 18 16 15 14 14 15 15 16 15 15 15 15 16 16 17 17 17 17 17 17 18 18 18
24 24 24 24 22 20 18 18 20 21 22 22 23 23 23 22 21 21 20 20 19 19 18 17 18 19 20 20 21 21 21 21 22 22 22 22 23 23 23 23 23 23 23 23 23 23 23 23 22 22 22 22 22 21 21 21 21 22 22 23 23 23 21 19 16 14 13 13 14 14 15 15 15 15 16 16 17 17 17 17 16 16 16 17 17 18
22 22 22 22 20 18 16 17 18 20 21 22 22 22 22 22 21 20 19 18 18 18 17 17 18 18 19 20 20 20 20 20 20 20 20 21 21 22 22 21 21 21 20 21 21 21 21 22 21 21 21 21 21 20 20 20 20 20 21 22 23 22 21 19 17 15 14 13 13 13 14 15 15 16 16 17 17 17 17 16 16 16 16 17 17 18
20 19 19 19 18 17 16 17 19 21 22 22 22 21 21 21 20 20 19 18 18 17 17 17 17 17 17 17 17 17 17 18 18 19 20 20 21 21 20 20 20 19 19 19 19 19 19 19 19 19 19 18 19 19 20 19 20 20 21 22 21 21 20 18 17 16 14 13 13 13 14 14 15 15 16 17 17 17 16 16 16 17 17 18 18 19
18 17 17 17 17 17 17 18 20 22 22 23 22 22 21 20 20 19 20 20 19 18 17 17 16 15 15 15 16 17 17 18 19 20 21 21 21 20 20 20 19 19 19 19 18 18 17 16 16 16 16 16 17 18 18 19 20 21 21 21 20 19 18 17 16 15 14 13 13 14 14 15 16 16 17 17 17 17 17 16 17 17 18 18 19 20
17 16 16 17 19 19 19 19 20 21 22 22 23 23 23 21 20 19 19 20 20 19 18 17 16 15 14 15 16 17 19 20 21 22 22 22 21 21 20 20 19 19 19 19 18 17 16 15 15 15 15 15 16 17 18 19 20 20 20 19 19 18 17 16 16 15 14 14 14 14 15 16 17 17 17 17 18 17 17 17 17 17 18 19 20 20
16 17 18 19 19 20 20 20 20 20 21 21 23 24 25 24 21 20 19 19 19 19 19 18 16 15 15 15 16 18 20 21 22 22 22 22 22 21 21 20 20 20 20 19 19 18 17 16 16 16 16 16 16 17 18 19 19 20 20 19 19 19 18 17 16 15 14 14 14 15 16 16 17 17 18 18 18 18 18 17 18 18 19 19 20 20
16 17 18 18 18 19 20 21 21 20 20 20 21 22 23 24 24 23 21 21 20 19 18 18 18 17 16 16 17 19 20 20 21 21 22 22 21 21 21 20 20 20 20 19 19 19 18 18 17 17 17 16 16 16 18 19 20 21 21 20 20 19 18 17 15 13 13 13 13 15 16 16 17 17 17 18 18 18 18 18 18 18 19 20 20 21
17 17 18 17 17 17 18 19 20 20 19 19 20 20 21 22 24 25 25 24 22 20 19 19 19 19 20 20 20 20 20 21 21 21 21 21 21 21 21 20 20 20 19 19 19 18 18 18 18 17 17 16 15 15 17 19 21 21 21 20 19 17 15 11 8 7 8 10 12 15 16 17 17 17 17 17 17 17 18 18 18 19 20 20 21 21
17 17 17 17 17 17 18 18 18 19 20 22 22 23 23 23 23 24 25 25 24 23 21 20 19 20 22 23 23 22 22 22 23 23 23 23 23 22 21 21 20 20 19 19 19 18 18 18 18 17 17 15 14 15 17 19 21 21 21 20 18 17 15 12 10 8 6 8 12 14 16 17 17 17 17 17 17 17 18 19 20 20 21 21 21 21
16 16 16 16 17 18 19 20 20 21 23 24 25 25 24 24 23 23 23 24 24 23 23 21 20 21 22 23 24 24 24 23 23 24 24 24 24 24 23 21 21 20 19 19 19 18 18 18 17 17 16 15 14 16 18 20 21 21 20 19 18 18 17 16 14 12 10 11 12 14 15 16 16 16 17 17 17 18 18 19 20 21 21 22 21 21
15 16 16 17 18 19 20 21 22 23 23 24 24 23 23 23 23 23 23 23 23 22 22 22 20 20 23 24 25 25 25 25 24 25 25 25 25 24 23 22 21 20 19 19 18 18 18 18 17 17 16 14 14 17 19 20 21 20 20 19 18 18 17 17 16 14 13 13 14 15 16 16 17 17 18 18 18 18 19 19 20 20 20 21 21 20
15 16 17 19 19 20 20 20 21 21 22 22 22 22 22 22 22 22 23 23 23 22 22 22 21 21 22 25 26 26 26 26 26 26 26 25 25 24 23 22 21 20 19 19 18 17 17 17 16 15 14 13 14 17 18 19 20 20 19 19 19 18 17 17 16 15 15 15 15 16 16 17 18 18 19 19 19 19 19 20 20 20 20 21 20 20
15 15 16 18 19 20 20 19 20 20 20 20 21 21 22 22 22 22 22 23 23 23 24 24 24 23 23 25 26 27 27 27 27 27 26 25 24 24 23 22 22 21 20 18 17 16 16 15 15 14 13 12 13 15 17 17 18 19 19 19 19 18 17 16 16 16 16 16 16 17 17 18 18 19 19 19 19 20 20 20 21 21 21 21 21 20
15 15 16 17 18 20 21 19 18 18 18 19 20 20 21 21 21 22 22 23 23 24 24 24 24 24 24 25 26 27 27 28 28 27 26 25 24 24 23 22 22 21 20 18 17 15 15 14 14 13 12 12 13 15 16 16 17 18 19 19 18 17 16 16 16 16 16 16 17 17 18 19 19 19 19 19 19 19 20 21 21 21 22 22 21 21
15 15 15 16 17 19 20 20 18 17 18 18 19 19 19 20 20 21 22 23 24 24 24 24 23 23 23 22 24 27 27 27 27 27 26 24 24 23 22 22 22 21 20 18 16 15 14 13 13 12 12 11 11 13 14 16 17 18 18 19 18 18 17 16 16 16 17 17 18 19 19 19 20 20 19 19 19 19 19 20 21 21 22 22 22 22
14 15 15 15 15 16 18 19 19 18 18 18 18 18 19 19 20 20 21 23 24 24 24 23 22 22 22 21 23 25 26 26 27 28 27 24 23 23 23 22 22 21 20 18 16 15 13 12 12 11 11 11 11 12 14 16 17 17 18 19 20 19 18 17 17 17 17 18 19 19 19 19 19 19 19 19 19 19 19 20 21 21 22 22 22 22
13 14 14 14 13 14 15 16 17 17 17 17 17 17 18 19 20 21 21 23 23 24 25 24 23 22 22 21 21 23 24 26 27 27 27 25 24 23 23 23 22 21 20 18 16 15 13 12 12 12 11 11 11 12 14 15 17 18 18 19 20 20 19 18 18 18 18 18 19 19 19 19 19 19 18 19 19 19 20 20 21 21 21 21 21 21
12 13 13 13 13 13 14 14 16 16 16 16 16 17 18 19 20 21 22 23 24 25 25 25 24 23 22 20 19 20 23 25 26 27 27 25 24 23 23 23 23 22 20 18 16 15 13 13 12 12 13 13 13 13 14 15 16 18 18 19 20 20 19 19 19 18 18 18 18 18 18 18 18 18 18 18 19 19 20 21 21 21 21 20 20 20
12 12 12 12 12 12 12 13 15 16 16 16 18 19 20 20 21 22 22 23 24 25 25 25 24 24 23 20 19 19 21 23 25 26 26 26 25 24 24 24 24 23 22 19 16 15 13 13 13 13 13 13 13 13 14 15 16 17 18 19 19 19 19 18 18 18 18 18 18 18 18 18 18 18 18 19 19 20 20 20 20 20 20 20 20 20
11 11 11 11 11 11 12 13 14 15 16 17 18 19 20 21 22 22 23 23 24 25 26 26 25 25 24 21 19 19 21 23 24 24 25 26 26 25 24 25 25 25 23 20 17 15 14 14 13 13 13 13 13 13 14 15 16 17 18 18 18 18 17 17 17 17 17 17 18 18 18 18 18 18 19 19 19 19 20 19 19 19 19 20 20 20
10 10 10 10 10 11 11 12 13 14 15 16 17 19 20 21 22 22 23 24 25 26 27 27 27 26 25 24 21 20 21 22 23 24 25 26 26 26 25 26 27 27 25 22 19 16 15 14 14 13 13 12 12 13 14 15 17 17 17 18 17 17 16 16 16 16 17 18 18 18 18 18 18 18 19 19 19 19 19 19 19 19 19 19 20 21
10 10 10 10 10 10 10 11 12 14 15 16 17 18 19 20 21 22 23 24 25 27 28 28 28 28 27 26 24 22 22 22 22 23 24 25 26 26 26 27 28 29 28 24 20 17 16 16 15 14 13 13 13 13 14 16 17 17 17 17 17 16 16 16 16 17 18 18 19 19 19 19 19 19 20 20 20 19 19 18 18 18 18 19 20 21
9 9 10 10 10 10 10 11 12 13 15 16 17 18 20 20 21 22 24 26 27 29 29 30 30 29 28 27 25 23 23 22 22 22 23 25 26 27 26 27 29 30 30 27 23 19 18 17 17 16 15 14 14 14 15 16 17 17 17 17 16 16 15 16 16 18 19 19 20 20 20 20 20 20 20 20 20 19 18 17 16 16 17 19 20 20
9 9 9 9 9 10 10 11 12 13 15 16 18 20 21 22 23 25 27 28 29 30 30 30 29 29 28 27 25 23 23 23 22 22 23 24 26 27 27 28 30 31 31 29 26 22 20 20 19 18 17 16 15 15 15 16 17 17 17 17 16 16 16 16 17 18 19 19 20 20 20 20 20 20 19 19 18 18 16 15 15 16 17 18 19 18
9 9 9 9 9 10 10 11 12 14 15 17 19 20 22 24 26 27 28 29 30 29 29 27 26 26 26 26 24 23 22 23 23 23 23 25 25 26 28 29 30 31 31 30 28 24 22 22 21 20 19 18 17 17 17 17 17 17 17 17 17 16 17 17 18 19 19 20 20 20 19 19 19 18 18 17 17 16 15 13 14 15 17 18 18 17
9 10 10 10 10 10 11 12 13 14 16 17 19 21 23 25 26 27 27 29 29 28 26 25 24 23 24 24 23 22 22 23 23 23 24 26 26 27 29 30 30 30 31 31 29 26 23 23 22 22 21 20 19 19 19 19 19 18 18 18 17 17 18 19 19 20 20 20 20 20 20 19 19 18 17 17 16 15 13 12 13 15 16 17 17 17
10 10 10 10 10 10 11 12 13 15 16 18 20 22 24 25 26 26 27 28 27 26 25 23 22 22 22 23 23 22 22 23 23 24 26 26 27 28 29 30 29 29 29 29 29 28 26 25 23 23 22 21 21 21 21 21 21 20 19 19 19 19 19 20 20 20 21 21 20 20 20 20 19 18 17 16 15 14 12 11 12 14 15 16 16 17
10 10 10 10 10 11 12 13 14 15 17 19 20 22 24 25 26 26 26 26 26 24 23 21 20 19 20 20 20 20 21 23 24 25 26 26 26 27 29 29 29 28 27 26 25 25 27 27 26 24 23 23 23 23 23 23 23 22 21 21 21 20 20 21 21 21 21 21 21 21 20 20 19 18 17 16 15 13 11 10 11 13 14 16 16 17
11 11 10 11 11 11 12 13 15 16 18 19 21 22 24 25 25 26 26 25 24 23 21 19 18 18 18 18 17 17 20 21 23 24 25 25 26 27 27 27 27 27 25 23 21 21 22 26 27 27 26 25 24 24 24 24 24 24 23 23 23 22 22 22 22 22 22 23 22 22 21 20 19 18 16 15 14 13 11 10 10 12 13 15 16 17
11 11 11 11 12 13 13 15 16 17 18 20 21 22 24 25 25 25 25 24 23 21 19 17 17 16 17 17 17 17 18 19 21 22 23 24 25 25 26 26 26 26 25 23 22 21 20 23 26 28 27 26 25 25 25 25 25 25 25 25 24 23 22 22 23 23 24 24 24 23 22 21 19 17 16 14 13 12 12 11 10 11 12 13 15 16
12 12 12 12 13 14 15 16 17 18 19 20 21 23 24 24 25 25 24 23 21 19 16 15 15 15 16 16 17 17 17 17 19 20 21 22 23 24 25 25 24 25 25 24 23 22 22 23 24 26 27 27 26 25 25 26 26 26 26 25 25 24 23 23 24 25 25 25 25 24 23 21 19 17 16 14 13 12 12 11 11 10 11 12 13 14
13 14 14 15 15 16 17 17 18 19 20 20 21 22 23 24 24 24 23 22 19 17 14 13 13 13 14 14 15 16 16 16 17 18 19 20 22 23 24 23 23 23 23 23 23 22 23 23 23 24 25 27 27 26 26 26 26 26 26 25 24 23 23 24 25 26 26 26 25 24 23 21 19 17 15 14 12 12 12 11 11 10 10 10 11 12
15 15 16 16 17 17 18 18 19 19 20 20 21 22 23 23 24 23 22 21 18 14 11 10 11 11 12 12 13 14 15 15 16 16 17 18 20 21 22 22 22 22 21 21 21 21 21 22 23 24 25 26 27 28 28 27 27 27 26 25 24 23 23 24 25 26 26 26 25 24 22 20 19 17 15 13 12 12 11 11 11 11 10 10 10 10
16 16 16 17 17 18 18 19 19 19 20 20 21 22 23 23 23 22 21 19 16 13 10 8 8 9 9 10 11 12 12 13 14 15 16 17 18 19 20 20 20 20 20 20 19 19 20 21 23 25 25 26 27 28 29 29 29 28 28 26 24 23 23 24 25 26 26 25 24 23 21 19 18 16 15 14 13 12 12 12 12 12 11 11 10 10
16 16 16 17 17 17 18 18 18 19 20 21 21 22 22 22 22 21 20 18 15 12 9 7 6 6 7 8 8 10 11 12 13 14 15 16 17 18 17 18 18 18 18 17 17 17 18 20 22 24 26 27 27 27 28 29 30 31 29 26 24 24 24 25 25 25 25 24 23 21 20 18 17 15 15 14 14 14 14 14 14 14 14 13 12 11
16 16 16 16 17 17 17 17 18 18 19 20 21 22 22 21 20 19 18 16 13 11 8 6 5 4 5 6 7 9 10 12 13 14 15 16 16 17 17 17 17 16 16 16 16 16 17 18 20 22 25 27 28 29 29 29 31 31 29 27 25 24 25 26 26 25 24 23 22 21 19 18 16 15 15 15 16 16 16 16 16 16 16 16 15 14
17 16 16 16 16 16 16 16 16 17 18 19 20 21 20 20 19 18 16 14 12 9 8 6 4 3 3 5 7 8 10 11 13 14 15 16 16 16 16 16 16 15 15 15 15 15 16 18 20 22 24 26 27 28 29 30 30 30 30 28 27 27 27 27 26 25 24 23 22 21 19 18 16 15 15 15 16 17 17 17 18 18 18 18 18 18
17 16 16 15 15 15 14 15 15 16 17 18 19 20 20 20 19 18 17 15 11 8 7 6 4 3 3 4 6 8 10 11 13 14 15 16 16 16 15 15 15 15 15 14 14 14 16 17 19 21 23 25 26 27 28 29 30 29 29 29 29 28 28 27 26 25 23 22 21 20 19 18 17 16 15 15 16 16 17 18 18 18 18 18 18 19
16 16 15 15 14 14 13 13 14 15 16 17 18 19 20 20 20 19 18 17 13 9 6 4 3 3 3 4 5 7 9 11 13 14 15 16 16 16 15 15 15 15 15 14 14 14 15 16 18 21 23 25 26 27 29 29 29 28 28 29 29 28 28 27 26 25 24 23 22 21 20 19 18 17 16 16 16 16 16 17 17 18 18 18 18 18
16 15 15 14 13 12 12 12 13 14 15 16 17 18 19 19 19 19 19 18 15 12 8 4 3 3 3 4 4 6 9 12 14 15 16 17 17 17 16 15 15 14 15 15 15 15 15 16 18 20 22 24 26 27 29 29 29 28 28 28 29 30 30 29 28 26 24 23 23 22 21 20 19 18 17 17 16 16 16 17 17 17 18 18 18 18
15 14 14 13 12 11 11 11 12 14 15 16 16 17 18 19 19 18 18 17 15 13 11 9 7 6 6 6 7 9 11 13 15 16 17 18 18 19 18 17 16 15 15 16 17 17 16 17 18 20 22 24 25 27 28 28 29 28 28 28 28 29 29 29 29 27 25 24 23 22 22 21 20 19 18 17 17 17 17 18 18 18 19 19 19 20
14 14 13 12 11 11 11 11 12 13 14 15 16 16 17 18 18 18 17 16 15 14 13 12 13 13 13 13 14 14 15 16 16 17 18 19 19 20 20 20 19 18 17 17 17 17 17 18 19 21 22 24 25 27 28 28 28 28 28 28 28 28 28 28 28 28 27 25 24 24 23 22 21 20 20 19 18 18 19 20 20 20 21 21 21 21
15 14 13 13 12 11 11 11 12 12 13 14 15 16 17 17 17 17 17 16 15 15 14 15 15 16 17 18 19 19 20 20 20 20 20 21 21 22 22 22 21 21 20 19 18 17 16 17 19 21 23 25 26 27 28 28 28 28 28 28 28 29 29 28 28 28 27 27 26 25 24 23 22 22 22 21 21 20 20 21 22 22 22 22 22 22
15 15 14 14 13 12 11 11 11 12 12 13 14 15 16 17 17 17 16 16 16 15 15 16 16 17 19 20 21 22 23 23 23 23 23 24 24 24 24 24 23 23 23 21 20 18 16 17 18 21 24 26 27 28 28 28 28 29 29 29 29 29 30 29 29 28 27 27 27 26 25 25 24 24 24 23 23 23 22 22 23 23 23 23 23 23
16 15 15 14 13 13 12 12 12 12 12 12 13 14 15 16 17 17 17 16 16 16 16 17 17 18 19 20 21 22 23 23 24 24 25 25 25 25 25 25 25 25 25 23 21 19 17 16 18 20 23 25 27 28 29 28 28 29 29 29 29 30 30 30 29 28 27 27 26 26 26 27 27 27 27 26 26 26 25 24 24 24 24 24 24 24
16 15 15 15 14 14 13 13 13 13 12 12 12 13 14 15 16 16 17 17 17 17 18 18 18 19 20 21 22 22 23 23 23 24 25 25 25 26 26 26 27 27 26 25 23 20 17 16 17 19 22 24 26 27 28 28 28 28 28 29 29 30 30 30 30 29 28 27 27 26 27 27 28 28 28 29 29 29 28 27 26 25 25 25 25 25
16 15 15 15 15 15 15 14 14 14 13 13 13 13 13 14 15 16 17 17 17 18 19 19 20 20 21 22 22 23 23 23 23 23 24 25 25 25 26 27 27 28 29 28 26 23 20 17 16 17 20 22 25 27 28 28 28 28 28 28 29 29 30 30 30 29 29 28 28 27 28 28 28 28 29 30 30 30 30 29 28 27 27 26 26 26
15 16 15 15 15 15 15 15 15 15 14 14 14 14 14 15 15 16 17 17 18 18 19 20 20 21 22 22 23 23 23 23 23 23 23 24 24 24 25 26 28 29 31 31 31 30 28 24 21 19 19 21 23 25 27 28 28 29 29 28 28 29 30 30 30 30 29 29 29 29 29 29 29 29 30 30 31 31 31 30 29 29 28 28 28 28
Wind_Direction
328 328 329 330 329 330 331 331 329 329 329 329 329 329 329 328 326 323 319 316 314 314 314 315 316 316 316 316 317 320 323 326 327 326 323 321 317 313 311 309 308 307 308 310 312 315 320 322 322 320 320 320 322 323 321 319 315 314 316 318 319 317 312 307 303 302 303 303 306 311 314 314 313 316 321 323 322 321 318 314 312 311 310 308 306 306
329 328 328 330 332 333 336 335 334 333 333 333 333 333 332 332 330 328 327 325 323 321 319 320 321 322 324 325 326 329 331 332 332 330 329 326 323 320 317 314 312 310 309 308 309 311 313 315 315 315 317 319 321 323 323 323 321 319 321 323 324 322 317 310 306 304 305 306 308 312 316 318 321 324 325 323 320 316 313 309 308 309 309 308 309 309
328 328 329 333 335 337 340 340 337 335 335 335 336 336 335 335 334 334 334 333 332 330 329 327 327 328 329 330 332 334 335 335 334 333 332 330 328 326 324 322 320 318 316 314 313 313 312 312 311 311 313 314 317 320 322 324 324 324 326 328 329 327 324 318 311 308 307 309 312 314 317 321 323 322 318 314 312 310 306 304 305 307 308 308 310 311
328 329 332 336 339 342 344 343 340 337 339 340 341 340 340 341 341 340 339 337 335 335 334 333 332 332 332 333 334 337 338 338 337 336 335 334 333 332 331 329 327 325 323 321 319 318 316 314 312 312 313 314 315 317 320 321 323 325 326 328 329 328 326 322 317 313 312 313 314 315 315 314 313 311 310 308 307 306 304 302 303 305 307 309 311 312
331 333 337 341 346 350 352 349 345 344 346 348 349 349 349 350 351 350 348 345 343 342 341 341 340 340 339 340 342 344 346 345 345 345 345 344 343 341 340 337 335 333 331 329 326 324 323 320 319 318 317 316 315 315 315 317 321 324 326 327 326 325 323 320 317 315 314 313 312 310 308 307 308 310 311 311 310 308 306 305 304 306 308 310 312 312
338 342 346 352 358 2 3 359 356 355 357 358 358 359 1 2 3 3 3 2 0 358 356 355 353 351 351 353 356 359 359 358 359 359 359 357 355 352 349 347 345 342 340 337 335 333 331 329 328 325 321 318 315 313 313 316 319 321 323 323 322 321 318 316 314 313 312 311 309 308 307 309 312 314 316 316 314 312 310 309 308 309 309 311 311 311
349 354 0 7 13 16 16 11 8 6 6 6 6 8 11 14 15 16 17 17 16 14 12 10 8 6 5 8 12 13 12 10 9 8 6 4 1 358 356 354 353 351 348 345 343 341 339 338 336 331 324 321 319 318 318 317 316 315 316 316 316 315 313 311 309 308 308 308 309 311 312 313 315 316 318 318 316 314 312 312 311 311 311 311 310 309
3 9 17 22 23 23 24 22 18 15 13 12 11 12 15 20 24 26 26 25 23 21 20 20 20 19 18 18 19 18 16 13 10 8 6 3 1 359 357 357 356 355 353 352 349 346 343 341 337 333 327 327 326 324 323 318 315 313 310 309 308 308 307 306 304 303 303 305 309 311 312 313 315 317 317 317 315 313 312 312 312 312 310 309 308 307
19 24 28 30 27 23 22 23 22 21 18 17 16 15 15 19 24 29 31 31 28 24 21 20 21 23 24 21 17 15 14 11 8 5 2 360 358 357 356 356 355 355 354 353 350 347 344 341 338 335 333 333 331 329 328 325 324 321 315 310 307 305 304 302 299 297 297 302 306 309 311 314 317 319 318 316 313 312 312 312 312 311 309 308 307 307
32 35 35 34 31 26 21 20 21 22 22 23 23 21 18 17 19 24 28 30 30 27 22 17 15 15 17 17 13 10 9 8 7 3 360 358 357 356 356 355 354 353 352 351 349 347 345 343 342 341 339 338 337 337 339 339 338 334 329 322 317 311 306 300 293 288 288 295 303 308 313 318 321 323 321 318 315 313 313 313 311 310 308 307 306 306
39 40 39 34 31 27 25 23 21 21 21 24 27 28 25 21 19 19 20 21 23 24 22 17 12 10 10 10 10 8 6 5 4 2 358 355 354 355 355 354 353 352 350 349 347 346 345 345 344 343 343 342 344 348 352 352 349 345 341 338 335 331 326 317 311 302 287 292 301 309 315 320 323 324 323 321 319 316 314 312 310 308 307 307 307 308
42 40 36 30 26 25 26 26 25 23 21 21 22 24 25 23 21 19 18 16 16 17 18 17 13 9 7 7 7 6 4 3 2 360 357 353 352 352 353 352 352 350 349 347 346 345 344 344 344 344 344 345 352 2 6 3 357 351 347 347 349 353 356 2 7 4 333 312 311 316 319 322 322 322 321 321 320 318 316 314 312 311 310 310 311 312
44 39 32 25 23 24 25 25 24 23 22 20 18 18 18 18 19 19 18 15 13 13 14 14 13 9 5 5 5 4 2 1 360 358 356 353 352 352 352 352 351 349 348 347 346 345 345 344 344 344 345 349 2 12 13 8 0 353 349 348 351 354 358 2 5 1 347 331 324 324 324 324 323 322 321 320 319 319 319 318 317 316 316 315 315 315
40 35 28 23 21 23 24 23 21 20 19 18 16 15 15 15 15 15 15 14 13 11 11 11 12 9 1 1 3 3 360 358 357 356 355 354 353 352 353 353 351 349 348 347 346 345 344 344 344 344 345 352 6 14 12 6 360 355 351 350 351 351 352 352 352 349 342 335 330 328 327 326 325 324 322 320 320 319 319 318 318 317 316 315 314 313
33 31 29 24 21 20 21 20 19 17 17 16 14 12 13 14 14 13 12 12 10 8 7 6 8 7 359 357 358 359 358 356 355 354 354 353 353 353 353 353 351 350 348 348 347 345 344 343 343 343 343 351 4 11 7 4 359 355 352 353 354 353 352 351 349 346 341 337 333 331 330 330 328 325 323 321 321 320 319 317 316 315 314 313 312 311
28 29 29 26 21 18 17 17 16 15 15 15 13 12 11 11 12 12 11 10 8 6 5 4 4 3 359 355 355 356 355 355 354 353 352 353 354 354 354 355 353 352 351 350 348 346 343 341 340 340 341 349 0 6 4 1 358 355 352 355 355 353 354 352 349 347 344 340 337 334 333 331 329 327 326 325 324 323 321 318 317 317 317 317 316 315
26 26 26 27 23 17 11 12 14 15 14 14 14 12 10 10 10 10 10 8 7 6 6 6 4 1 357 353 353 354 353 353 352 351 351 354 356 356 357 358 358 356 355 354 351 348 344 340 337 336 337 344 354 360 0 358 355 351 350 350 349 349 348 347 346 344 342 339 336 333 330 328 326 326 325 324 324 324 323 321 320 320 321 321 320 320
23 21 21 24 25 19 10 5 8 14 15 14 13 12 10 9 8 8 8 7 6 7 7 7 4 360 355 349 350 352 350 351 350 349 350 354 357 358 359 1 2 1 360 359 356 352 346 339 335 332 332 336 346 355 357 356 352 348 345 344 342 339 338 337 336 335 335 334 332 330 328 326 326 326 326 326 326 325 324 323 323 322 322 321 321 321
17 15 15 18 24 23 15 4 2 7 12 13 11 9 8 8 7 6 6 5 5 5 5 4 3 359 355 351 350 350 349 349 349 348 350 354 358 0 1 3 5 6 6 6 3 358 350 343 337 332 330 331 339 348 353 354 351 347 344 343 341 338 333 329 328 329 330 331 331 330 329 329 329 329 330 330 328 327 325 324 322 321 320 319 319 319
12 10 9 10 17 24 21 6 360 3 10 12 10 8 7 6 5 4 4 3 3 2 1 1 359 357 355 354 352 350 348 348 348 349 350 354 359 2 3 5 7 9 11 12 9 3 356 350 344 340 338 338 341 345 350 351 350 347 345 344 342 340 337 335 335 335 336 335 334 332 331 331 331 332 332 331 329 327 325 323 322 321 321 321 322 322
11 10 9 4 8 18 20 6 357 359 8 10 9 7 6 5 4 2 1 1 360 359 358 357 356 355 354 355 354 351 348 349 350 350 349 353 359 3 4 5 7 9 12 14 14 9 4 0 357 355 353 351 348 346 347 348 347 346 345 344 344 343 344 344 344 343 340 338 336 334 333 332 333 333 332 329 327 325 324 323 322 323 324 326 327 327
13 11 6 360 2 8 9 359 355 358 5 7 8 7 6 4 2 1 360 359 358 357 356 355 353 352 352 354 356 353 350 350 351 350 350 353 357 2 4 4 5 7 10 13 14 14 12 10 8 7 4 359 352 347 345 346 346 344 344 343 342 342 343 344 344 342 340 337 336 335 334 334 333 332 329 326 324 323 323 324 325 328 331 332 331 327
11 8 4 3 3 3 2 358 356 358 3 7 8 7 4 2 1 359 358 357 357 355 354 352 351 350 350 353 355 354 352 351 351 351 352 352 355 359 3 2 2 3 6 10 13 15 16 16 16 13 9 3 355 350 350 350 348 346 344 343 340 339 339 341 341 340 337 336 336 335 334 333 331 329 327 324 322 322 324 327 331 334 336 334 329 322
10 7 4 2 1 1 360 358 357 358 1 5 6 5 3 1 359 357 356 355 354 353 351 350 348 348 348 351 353 355 355 354 353 354 355 353 354 358 1 360 358 358 1 6 10 14 19 21 21 18 13 7 1 357 356 356 354 351 347 344 341 339 339 340 340 338 336 335 335 333 331 329 327 325 323 322 322 324 327 331 335 337 336 330 322 316
7 3 360 357 356 357 358 358 357 358 360 2 3 3 1 359 356 353 351 351 351 351 350 348 347 347 348 350 353 356 358 358 357 357 356 354 354 357 0 358 355 354 356 1 7 12 18 22 22 19 15 11 7 5 3 2 360 356 352 348 344 341 340 341 341 338 336 335 333 332 330 328 326 324 323 322 324 326 328 332 335 337 333 324 315 313
358 355 353 352 352 353 354 355 356 357 358 359 360 360 358 355 352 349 348 349 351 351 350 348 348 348 349 351 354 358 360 0 360 359 358 356 355 355 358 357 355 352 353 357 3 9 14 17 17 14 12 11 10 9 9 7 4 1 357 352 348 345 343 342 341 340 338 336 335 334 332 330 328 326 325 326 326 327 329 331 335 335 330 319 314 316
351 349 349 349 349 349 349 351 353 355 356 357 357 357 355 353 350 350 350 352 352 351 350 349 348 347 348 350 354 357 0 1 1 360 359 358 355 353 353 355 354 353 352 354 359 5 10 11 10 8 7 7 9 10 10 9 6 4 360 356 352 348 346 344 343 342 341 340 339 337 335 333 331 330 329 328 328 328 328 331 335 335 328 320 318 323
345 344 343 343 343 345 347 349 351 353 355 356 356 355 354 353 353 354 354 353 352 351 349 348 348 347 347 348 351 356 0 2 1 360 360 359 355 351 350 353 354 353 353 353 357 2 6 7 6 5 4 5 7 9 10 9 7 5 2 359 356 352 350 349 348 347 347 346 344 342 340 338 336 335 333 332 330 329 328 334 336 332 325 323 326 332
340 339 338 338 340 343 346 348 351 353 354 355 355 355 355 356 356 356 354 352 351 350 348 347 347 346 346 347 350 355 0 2 1 359 359 358 354 350 350 352 353 354 355 354 355 358 1 4 4 4 3 5 7 8 9 9 8 6 4 2 359 356 354 353 353 352 352 351 349 347 345 343 341 340 339 337 334 332 332 337 337 332 326 327 331 336
334 333 333 334 337 341 345 348 351 353 354 355 355 356 356 357 356 355 353 352 350 348 347 346 346 346 347 348 351 354 358 2 1 358 357 356 352 349 350 351 353 355 357 356 353 352 353 360 3 4 4 5 7 8 8 7 7 6 5 3 1 359 357 356 355 355 354 354 353 351 349 347 345 344 343 340 337 335 336 338 336 332 330 332 334 337
331 331 331 333 337 340 344 347 349 351 353 354 355 356 356 356 355 354 352 350 349 347 345 344 345 347 349 352 353 353 353 360 359 355 355 354 350 347 349 350 353 356 358 358 353 346 345 350 357 2 4 5 6 6 6 5 6 6 5 4 2 360 358 357 356 356 355 355 354 353 351 349 348 347 347 344 341 339 339 339 337 334 332 334 335 337
334 333 334 335 338 340 343 345 348 350 352 354 355 356 355 354 353 352 350 349 348 346 344 343 344 347 350 354 356 355 355 359 356 352 352 351 349 348 349 351 353 355 358 359 356 347 339 340 347 355 360 2 3 3 3 3 4 4 4 3 2 0 359 357 356 355 355 355 355 355 354 353 352 351 350 348 345 343 341 342 339 336 335 336 337 338
337 335 336 337 338 340 342 344 347 349 352 353 355 355 354 352 351 349 348 348 347 345 344 343 345 347 350 354 356 358 359 360 356 351 350 350 350 350 350 353 354 356 356 358 357 353 346 341 343 348 353 357 358 359 0 1 2 3 3 3 2 1 359 357 356 355 355 356 356 357 356 356 356 357 356 354 350 348 347 346 342 339 338 340 340 340
335 334 334 335 336 338 340 343 345 348 351 353 354 353 352 350 349 348 347 348 347 346 345 345 347 350 352 355 357 359 1 360 355 350 349 352 353 353 353 355 357 356 356 356 356 355 351 348 347 347 348 351 355 357 359 359 359 0 2 2 2 1 360 358 357 357 356 357 358 359 359 359 1 2 2 0 357 355 354 352 349 346 345 347 346 344
333 332 332 333 335 337 339 342 344 347 350 352 352 352 351 349 348 347 348 349 349 348 346 347 350 353 356 357 358 359 360 358 354 350 350 355 356 356 357 358 358 357 357 356 355 354 352 350 348 347 346 348 351 355 358 357 357 358 1 3 4 3 2 1 359 358 358 359 360 1 2 3 5 6 7 7 6 3 1 358 356 355 355 354 351 349
332 332 333 334 336 339 341 342 344 346 349 351 351 351 350 349 348 348 349 350 351 350 347 346 348 353 359 360 360 358 357 354 352 352 355 358 359 359 1 0 359 358 358 357 355 354 353 351 349 348 348 347 349 352 355 357 357 357 360 3 5 6 5 4 2 1 0 1 3 4 5 6 8 9 11 12 12 11 7 4 2 1 1 360 356 352
332 333 335 337 339 341 342 344 345 347 349 350 350 350 349 349 350 350 351 352 351 350 349 347 350 357 3 2 359 355 353 352 353 357 360 0 0 1 2 1 360 360 1 359 357 354 352 351 350 349 350 350 349 349 351 354 355 357 360 3 6 7 7 6 4 3 3 4 5 7 9 9 10 11 13 15 16 15 12 8 6 5 4 2 359 354
334 336 338 339 341 343 344 345 346 348 349 350 349 349 350 350 351 353 354 353 351 348 345 346 356 8 12 5 357 352 350 353 357 1 3 3 2 2 3 1 1 1 3 1 358 355 353 352 351 350 350 351 352 351 351 351 353 355 358 1 5 8 9 8 7 6 5 6 7 10 11 12 12 12 12 13 13 13 11 9 7 5 4 2 360 356
338 339 340 342 343 344 345 346 347 349 349 349 348 348 349 351 354 356 358 357 352 346 341 343 355 12 12 360 351 348 350 354 359 3 5 6 5 4 3 2 2 2 3 2 360 357 355 354 354 353 352 352 353 353 353 353 352 353 356 359 5 9 11 11 9 8 7 8 9 12 14 15 14 13 13 12 11 10 9 8 5 4 2 360 358 357
341 341 342 343 345 345 346 347 348 348 348 347 346 347 349 353 357 2 5 4 357 348 341 339 343 352 353 343 339 341 347 353 359 4 8 10 9 7 5 3 3 2 3 4 2 360 358 357 356 356 356 355 354 353 352 353 354 355 356 359 4 9 12 12 11 10 10 10 11 14 16 16 16 15 14 12 11 9 8 7 5 4 2 360 357 355
342 342 343 344 344 345 346 346 346 346 346 346 346 349 352 357 2 8 13 13 8 354 339 331 323 317 321 324 330 338 346 354 0 5 10 12 14 12 8 6 4 3 3 5 5 3 1 360 359 359 358 357 355 353 353 353 355 357 359 1 4 7 11 12 12 12 12 13 13 15 16 17 17 16 15 14 12 11 9 7 7 6 4 1 358 356
343 343 343 343 343 344 345 344 344 345 346 347 350 353 357 1 6 11 15 16 15 8 351 327 300 286 288 308 328 342 353 359 4 7 10 13 16 16 14 11 7 5 4 6 6 6 4 3 1 1 360 359 357 355 354 354 356 359 1 3 5 7 9 12 14 14 15 15 15 15 16 18 19 18 17 16 15 13 11 10 9 8 6 3 0 358
344 344 343 343 344 344 344 344 345 347 348 351 355 360 3 6 10 14 17 17 17 16 14 3 330 307 306 313 334 354 3 6 7 8 9 11 14 16 18 17 15 12 9 8 7 7 6 5 4 3 2 0 359 357 355 355 357 360 3 5 7 8 7 9 12 15 16 16 16 16 16 17 19 20 20 20 18 16 14 13 12 10 7 4 2 360
349 348 348 348 349 348 347 347 349 351 353 357 1 5 8 10 13 16 19 19 18 19 24 28 29 25 21 15 10 9 10 10 9 9 9 10 12 14 16 19 21 20 18 15 11 7 5 5 5 4 3 2 0 358 357 356 357 359 3 6 8 8 6 7 10 13 15 17 17 16 16 16 17 20 22 24 22 19 17 15 13 11 8 5 2 0
358 358 358 358 357 355 353 353 355 357 358 1 5 8 11 14 16 18 20 19 17 16 18 21 23 23 22 19 15 11 9 9 9 9 9 10 10 11 13 16 20 23 24 22 17 11 8 6 5 5 4 3 1 359 358 357 357 359 2 5 7 9 10 12 13 13 13 15 16 16 15 15 16 18 22 25 26 24 20 17 14 11 8 6 4 2
9 9 10 10 9 6 3 2 2 2 4 6 9 11 14 16 18 20 21 19 16 14 14 13 15 16 14 11 9 7 5 5 5 6 6 7 8 8 9 11 16 21 24 24 22 18 14 10 7 6 4 2 1 0 359 358 358 359 1 4 5 8 11 13 14 15 14 14 14 14 14 15 15 17 19 22 24 24 22 19 15 12 9 6 5 4
16 17 18 18 16 13 10 8 8 9 11 12 13 14 15 17 19 21 22 19 16 14 13 13 14 15 14 10 7 4 2 1 1 2 3 3 4 4 4 6 11 16 20 21 21 21 20 17 13 10 6 2 360 359 359 359 359 359 0 2 4 6 8 11 13 14 14 14 13 13 13 14 14 15 16 18 20 21 21 20 17 13 10 8 7 7
19 20 20 20 18 15 14 13 14 16 18 18 18 16 16 16 18 20 21 20 17 14 14 14 15 15 14 11 7 4 2 0 360 360 0 0 0 1 1 2 5 10 15 17 19 21 23 23 20 15 9 4 360 358 357 358 359 359 360 1 2 4 6 8 11 12 13 13 13 13 13 13 13 12 13 14 16 17 18 18 17 15 12 11 11 11
20 21 21 19 17 16 15 16 18 20 21 21 20 18 17 17 17 18 19 19 17 15 14 13 14 14 14 11 8 5 2 1 0 0 0 360 359 358 358 359 1 5 9 12 15 20 25 29 28 22 14 7 1 358 357 357 357 358 359 0 1 2 3 6 8 9 10 11 12 12 13 13 13 12 11 11 11 12 14 16 16 15 14 14 14 15
22 21 20 19 18 17 16 17 19 21 22 21 19 17 16 16 17 17 18 18 17 16 14 13 12 13 12 10 8 5 3 1 1 1 1 360 359 359 359 358 360 3 5 7 10 14 18 25 30 29 22 12 5 0 358 357 356 357 358 360 1 1 1 3 4 6 7 8 9 10 11 11 12 12 11 10 8 7 10 13 15 15 15 15 16 17
22 22 21 20 19 18 17 18 19 20 20 18 16 14 13 12 14 15 15 15 15 14 13 11 11 11 10 9 7 4 2 1 2 3 3 1 1 2 2 2 4 5 4 2 3 5 8 9 13 19 24 19 12 6 2 359 356 356 356 359 0 1 0 0 1 3 4 5 7 8 9 9 10 11 11 10 7 5 6 9 12 14 14 15 16 17
Height
1480 1479 1478 1477 1476 1475 1473 1472 1470 1468 1467 1466 1465 1464 1463 1463 1462 1461 1460 1459 1458 1458 1456 1455 1454 1453 1453 1452 1451 1450 1449 1448 1448 1447 1446 1445 1444 1443 1442 1441 1440 1439 1438 1437 1436 1435 1435 1434 1433 1432 1431 1430 1429 1428 1427 1425 1424 1423 1422 1421 1419 1418 1417 1416 1416 1415 1415 1415 1414 1413 1413 1412 1411 1410 1409 1409 1409 1408 1408 1408 1407 1407 1406 1405 1404 1403
1479 1478 1477 1476 1475 1474 1472 1470 1469 1468 1467 1465 1464 1463 1462 1461 1460 1459 1459 1458 1457 1456 1455 1454 1453 1452 1451 1450 1450 1449 1448 1448 1447 1446 1444 1443 1443 1442 1441 1440 1439 1438 1437 1436 1435 1434 1433 1433 1432 1431 1430 1429 1428 1427 1426 1425 1423 1422 1421 1420 1418 1417 1416 1415 1415 1415 1414 1414 1413 1413 1412 1411 1410 1409 1409 1408 1408 1408 1407 1407 1406 1405 1405 1404 1403 1402
1478 1476 1476 1475 1474 1473 1471 1469 1468 1467 1466 1465 1464 1463 1462 1460 1459 1458 1458 1457 1456 1455 1454 1453 1452 1451 1450 1449 1449 1448 1448 1447 1446 1444 1443 1443 1441 1440 1439 1438 1437 1436 1435 1434 1433 1433 1432 1431 1431 1430 1429 1428 1428 1426 1425 1424 1423 1421 1420 1418 1418 1416 1415 1414 1414 1414 1413 1413 1412 1412 1411 1410 1410 1409 1408 1408 1408 1407 1406 1405 1404 1404 1403 1403 1402 1402
1477 1476 1474 1473 1473 1472 1471 1469 1468 1467 1466 1465 1463 1462 1461 1460 1459 1458 1457 1456 1455 1454 1453 1453 1451 1450 1449 1448 1448 1448 1447 1446 1445 1444 1443 1442 1440 1439 1438 1437 1436 1435 1434 1433 1432 1431 1430 1430 1429 1428 1428 1427 1426 1425 1424 1423 1421 1420 1418 1417 1416 1415 1414 1414 1414 1414 1413 1412 1412 1411 1411 1410 1409 1408 1408 1407 1406 1405 1404 1403 1403 1403 1402 1401 1401 1400
1477 1475 1474 1473 1472 1471 1470 1469 1468 1466 1465 1464 1463 1461 1460 1459 1458 1457 1456 1455 1454 1453 1452 1451 1451 1450 1449 1448 1448 1447 1446 1445 1444 1443 1442 1441 1440 1439 1438 1436 1435 1434 1433 1432 1431 1430 1429 1428 1428 1427 1426 1425 1424 1423 1423 1421 1420 1418 1417 1416 1415 1414 1414 1414 1413 1413 1412 1412 1411 1411 1410 1409 1408 1407 1406 1405 1404 1404 1403 1403 1402 1402 1401 1400 1399 1399
1476 1475 1474 1473 1472 1471 1469 1468 1467 1466 1464 1463 1462 1461 1460 1459 1458 1457 1455 1454 1453 1453 1452 1451 1450 1449 1449 1448 1447 1447 1446 1445 1444 1443 1442 1441 1439 1438 1437 1436 1434 1433 1432 1431 1430 1429 1428 1428 1427 1426 1425 1423 1423 1421 1420 1419 1418 1417 1416 1415 1414 1413 1413 1413 1413 1412 1412 1411 1410 1409 1408 1408 1407 1406 1405 1405 1404 1403 1403 1402 1402 1401 1400 1399 1399 1398
1475 1475 1473 1472 1471 1470 1469 1468 1467 1465 1464 1463 1461 1460 1460 1459 1458 1457 1455 1454 1453 1452 1452 1451 1451 1450 1449 1448 1447 1447 1446 1444 1443 1443 1442 1440 1439 1438 1437 1435 1434 1433 1432 1430 1429 1428 1428 1427 1426 1424 1423 1422 1421 1420 1419 1418 1417 1416 1415 1414 1413 1413 1412 1412 1412 1411 1411 1410 1409 1408 1408 1407 1407 1406 1405 1404 1403 1403 1402 1401 1401 1400 1399 1398 1398 1397
1474 1474 1473 1472 1471 1470 1469 1468 1467 1466 1464 1463 1461 1460 1459 1459 1458 1457 1456 1455 1453 1453 1452 1451 1451 1450 1449 1448 1447 1446 1445 1444 1443 1442 1441 1440 1439 1438 1436 1435 1434 1433 1431 1430 1429 1428 1427 1425 1424 1423 1422 1421 1420 1419 1418 1417 1416 1415 1414 1413 1413 1412 1411 1411 1410 1410 1410 1409 1408 1408 1407 1407 1406 1405 1404 1403 1403 1402 1401 1401 1400 1399 1398 1398 1397 1396
1474 1473 1472 1472 1471 1470 1469 1468 1468 1467 1465 1464 1462 1460 1459 1458 1458 1457 1457 1455 1454 1453 1452 1451 1451 1450 1449 1448 1448 1447 1445 1444 1443 1442 1441 1440 1438 1437 1436 1435 1433 1432 1431 1430 1428 1427 1426 1425 1423 1422 1421 1420 1419 1418 1418 1417 1415 1414 1413 1413 1412 1411 1410 1409 1409 1409 1408 1408 1408 1407 1406 1405 1405 1404 1403 1403 1402 1401 1400 1399 1398 1398 1397 1396 1396 1395
1474 1473 1473 1472 1472 1471 1470 1468 1468 1467 1466 1465 1464 1462 1460 1459 1458 1457 1456 1455 1455 1454 1453 1452 1451 1450 1449 1449 1448 1447 1446 1445 1444 1443 1441 1440 1439 1438 1436 1435 1433 1432 1431 1429 1428 1427 1426 1424 1423 1422 1421 1420 1419 1418 1417 1416 1415 1414 1413 1412 1411 1410 1409 1408 1408 1408 1408 1407 1407 1406 1405 1404 1404 1403 1403 1402 1401 1400 1399 1398 1398 1397 1396 1395 1394 1393
1474 1473 1473 1473 1472 1472 1471 1469 1468 1467 1466 1465 1464 1463 1462 1460 1458 1457 1456 1455 1454 1454 1453 1452 1451 1450 1449 1448 1448 1447 1446 1444 1443 1443 1441 1440 1439 1438 1436 1435 1433 1432 1431 1429 1428 1427 1425 1424 1423 1422 1421 1420 1419 1418 1417 1417 1416 1414 1413 1412 1410 1409 1408 1408 1408 1407 1406 1406 1406 1405 1405 1404 1403 1403 1402 1401 1400 1399 1398 1398 1397 1396 1395 1394 1393 1392
1475 1474 1473 1473 1472 1472 1471 1470 1469 1468 1466 1465 1463 1462 1461 1461 1459 1458 1457 1456 1455 1454 1453 1453 1452 1450 1449 1448 1447 1446 1445 1444 1443 1442 1440 1439 1438 1437 1435 1434 1433 1432 1430 1429 1428 1426 1425 1424 1423 1422 1420 1419 1418 1418 1417 1416 1416 1414 1413 1412 1410 1409 1408 1408 1407 1406 1405 1405 1405 1405 1404 1403 1403 1402 1401 1400 1399 1398 1398 1397 1396 1395 1394 1393 1392 1391
1475 1474 1474 1473 1472 1472 1471 1469 1468 1467 1466 1464 1463 1462 1462 1461 1460 1459 1458 1457 1456 1455 1454 1453 1452 1451 1450 1449 1448 1446 1445 1444 1443 1442 1440 1438 1437 1436 1435 1433 1432 1431 1429 1428 1427 1426 1424 1423 1422 1421 1420 1419 1418 1418 1417 1416 1415 1414 1413 1412 1410 1409 1408 1407 1406 1405 1405 1405 1404 1404 1403 1403 1402 1401 1400 1399 1398 1397 1397 1396 1395 1394 1393 1392 1391 1390
1475 1475 1474 1473 1472 1472 1471 1470 1468 1468 1466 1465 1465 1464 1463 1462 1461 1460 1459 1458 1457 1456 1455 1454 1453 1452 1450 1449 1448 1447 1445 1444 1443 1442 1440 1438 1437 1435 1434 1433 1432 1430 1429 1428 1426 1425 1424 1423 1422 1421 1420 1419 1418 1417 1417 1417 1416 1414 1413 1411 1410 1409 1408 1407 1406 1406 1405 1404 1404 1403 1402 1402 1401 1400 1399 1398 1397 1396 1396 1395 1394 1393 1392 1391 1390 1388
1476 1475 1474 1473 1473 1472 1471 1470 1469 1468 1468 1467 1466 1465 1464 1463 1462 1460 1459 1458 1458 1457 1456 1455 1454 1453 1451 1449 1448 1447 1445 1444 1443 1441 1440 1438 1437 1435 1434 1433 1432 1430 1428 1427 1426 1425 1423 1422 1421 1420 1419 1418 1418 1417 1417 1417 1416 1414 1413 1412 1410 1409 1408 1408 1407 1406 1405 1404 1403 1403 1402 1401 1400 1399 1398 1398 1397 1396 1395 1394 1393 1392 1390 1389 1388 1387
1476 1476 1475 1474 1474 1473 1472 1471 1470 1469 1468 1468 1467 1465 1464 1463 1462 1461 1460 1459 1458 1457 1455 1454 1453 1452 1451 1450 1448 1447 1445 1443 1442 1441 1440 1438 1437 1435 1434 1433 1431 1429 1428 1427 1425 1424 1423 1422 1421 1420 1419 1418 1418 1418 1417 1417 1416 1414 1413 1412 1411 1409 1408 1408 1407 1406 1405 1404 1403 1402 1402 1401 1400 1399 1398 1397 1396 1395 1394 1393 1392 1390 1389 1388 1387 1386
1477 1476 1476 1475 1475 1474 1473 1472 1471 1470 1469 1468 1467 1466 1465 1463 1463 1462 1460 1459 1458 1457 1455 1454 1452 1451 1450 1448 1448 1446 1445 1443 1442 1441 1440 1438 1437 1435 1434 1432 1431 1429 1428 1426 1425 1424 1423 1422 1421 1420 1419 1418 1418 1417 1417 1416 1415 1414 1413 1412 1410 1409 1408 1407 1407 1406 1404 1403 1403 1402 1401 1400 1399 1398 1397 1396 1395 1394 1393 1391 1390 1389 1388 1387 1386 1385
1478 1477 1477 1476 1476 1475 1474 1473 1472 1471 1470 1468 1468 1467 1466 1465 1463 1463 1461 1460 1458 1457 1456 1454 1453 1452 1450 1449 1448 1446 1445 1443 1442 1440 1439 1438 1437 1435 1434 1433 1431 1429 1428 1426 1425 1424 1423 1422 1421 1420 1419 1418 1418 1417 1417 1416 1415 1414 1413 1411 1410 1409 1408 1407 1406 1405 1404 1403 1402 1401 1400 1399 1398 1397 1396 1395 1393 1393 1391 1390 1389 1388 1387 1386 1385 1384
1478 1478 1477 1477 1476 1476 1475 1474 1472 1471 1470 1469 1468 1467 1466 1465 1464 1463 1462 1461 1459 1458 1457 1455 1454 1453 1452 1450 1448 1447 1445 1444 1442 1440 1439 1438 1436 1435 1433 1432 1431 1429 1428 1426 1425 1424 1423 1422 1421 1420 1419 1418 1418 1417 1416 1416 1415 1413 1412 1411 1410 1408 1407 1406 1405 1404 1403 1403 1402 1401 1400 1398 1397 1396 1395 1394 1393 1391 1390 1389 1388 1387 1386 1385 1384 1383
1479 1478 1478 1477 1477 1476 1476 1475 1473 1471 1471 1470 1469 1468 1467 1466 1465 1463 1462 1461 1460 1459 1457 1456 1455 1453 1452 1450 1449 1447 1445 1444 1442 1440 1438 1437 1436 1435 1433 1432 1431 1429 1428 1427 1425 1424 1423 1422 1421 1420 1419 1418 1417 1417 1416 1415 1414 1413 1412 1411 1409 1408 1407 1406 1405 1404 1403 1402 1401 1400 1399 1398 1396 1395 1394 1393 1391 1390 1389 1388 1387 1386 1384 1383 1383 1382
1480 1479 1479 1478 1477 1476 1476 1475 1473 1472 1471 1470 1469 1468 1467 1466 1465 1464 1463 1462 1460 1459 1458 1456 1455 1454 1452 1451 1449 1448 1446 1444 1442 1440 1438 1437 1436 1434 1433 1432 1431 1429 1428 1427 1426 1424 1423 1422 1421 1420 1419 1418 1417 1416 1416 1415 1414 1413 1412 1410 1409 1408 1407 1406 1405 1404 1403 1402 1400 1399 1398 1396 1395 1394 1393 1392 1390 1389 1388 1387 1386 1384 1383 1383 1382 1381
1480 1480 1479 1479 1478 1477 1476 1475 1474 1473 1472 1471 1469 1468 1467 1466 1465 1464 1463 1462 1460 1459 1458 1457 1455 1454 1453 1452 1450 1448 1446 1445 1443 1441 1438 1437 1435 1434 1433 1432 1431 1429 1428 1428 1426 1425 1423 1422 1421 1420 1419 1418 1417 1416 1415 1414 1413 1412 1411 1410 1408 1407 1406 1405 1404 1403 1402 1400 1399 1398 1397 1395 1394 1393 1392 1390 1389 1388 1387 1386 1384 1383 1383 1382 1381 1380
1481 1480 1480 1479 1478 1477 1476 1475 1474 1473 1472 1471 1470 1469 1468 1466 1465 1464 1463 1462 1461 1459 1458 1457 1456 1454 1453 1452 1450 1449 1447 1445 1443 1441 1439 1437 1436 1434 1433 1432 1430 1429 1428 1428 1426 1425 1423 1422 1421 1420 1419 1418 1418 1416 1415 1414 1413 1412 1411 1409 1408 1407 1405 1404 1403 1402 1401 1399 1398 1397 1396 1394 1393 1392 1391 1389 1388 1387 1386 1384 1383 1383 1382 1381 1380 1379
1482 1481 1480 1479 1478 1478 1477 1476 1474 1473 1472 1472 1471 1470 1468 1467 1466 1465 1463 1462 1461 1460 1458 1457 1455 1454 1453 1451 1450 1449 1447 1445 1443 1442 1440 1438 1436 1435 1433 1432 1430 1429 1428 1428 1427 1425 1424 1422 1421 1420 1419 1418 1418 1416 1415 1414 1413 1412 1410 1409 1408 1406 1405 1404 1403 1401 1400 1399 1397 1396 1395 1393 1392 1391 1389 1388 1387 1386 1385 1384 1383 1382 1381 1381 1379 1378
1482 1481 1481 1480 1479 1478 1477 1476 1475 1474 1473 1472 1471 1470 1469 1468 1467 1465 1464 1463 1461 1459 1458 1456 1455 1453 1452 1450 1449 1448 1447 1445 1443 1442 1440 1438 1437 1435 1434 1433 1431 1429 1428 1427 1427 1425 1424 1423 1421 1420 1419 1418 1417 1416 1415 1414 1413 1411 1410 1408 1407 1406 1405 1403 1402 1401 1399 1398 1397 1395 1394 1392 1391 1390 1388 1387 1386 1385 1384 1383 1382 1382 1381 1379 1378 1376
1483 1482 1481 1480 1479 1478 1478 1477 1476 1474 1473 1472 1471 1470 1469 1468 1467 1465 1464 1462 1460 1458 1457 1455 1453 1452 1450 1449 1448 1447 1446 1445 1443 1442 1441 1439 1437 1435 1434 1433 1431 1429 1428 1427 1426 1425 1423 1422 1421 1421 1419 1418 1417 1416 1414 1413 1412 1411 1410 1408 1407 1406 1404 1403 1402 1400 1399 1397 1396 1394 1393 1392 1390 1389 1388 1386 1385 1384 1383 1383 1382 1381 1380 1378 1376 1375
1483 1482 1482 1481 1480 1479 1478 1477 1476 1475 1474 1473 1471 1470 1469 1468 1466 1464 1462 1460 1459 1458 1456 1454 1452 1451 1449 1448 1448 1447 1446 1445 1443 1442 1441 1440 1438 1436 1434 1433 1431 1429 1428 1426 1425 1424 1423 1422 1421 1420 1419 1418 1417 1415 1414 1413 1412 1411 1409 1408 1407 1405 1404 1403 1401 1400 1398 1397 1395 1394 1393 1391 1390 1388 1387 1386 1385 1383 1383 1382 1381 1380 1379 1377 1375 1374
1483 1483 1482 1481 1480 1479 1478 1477 1476 1475 1474 1473 1472 1470 1468 1467 1465 1463 1461 1460 1459 1457 1456 1454 1453 1451 1449 1448 1448 1447 1446 1445 1443 1443 1441 1440 1438 1437 1435 1433 1432 1430 1428 1426 1424 1423 1423 1422 1421 1420 1419 1418 1416 1415 1414 1413 1412 1410 1409 1408 1407 1405 1404 1402 1401 1399 1398 1397 1395 1393 1392 1390 1389 1388 1386 1385 1384 1383 1382 1381 1380 1379 1378 1376 1375 1374
1484 1483 1482 1481 1480 1479 1478 1478 1476 1475 1474 1473 1471 1470 1468 1467 1465 1463 1462 1460 1459 1457 1456 1455 1453 1452 1451 1449 1448 1447 1446 1445 1444 1443 1441 1440 1439 1437 1436 1434 1432 1430 1428 1425 1423 1422 1422 1422 1421 1420 1419 1418 1416 1415 1413 1412 1411 1410 1409 1408 1406 1405 1403 1402 1401 1399 1398 1396 1394 1393 1391 1390 1388 1387 1386 1384 1383 1382 1382 1381 1380 1378 1377 1376 1375 1374
1484 1483 1483 1482 1481 1479 1478 1478 1476 1475 1474 1473 1472 1470 1468 1467 1465 1464 1462 1460 1459 1458 1456 1455 1453 1453 1451 1449 1448 1447 1446 1445 1444 1443 1442 1440 1439 1437 1436 1434 1433 1431 1429 1427 1424 1422 1421 1421 1420 1420 1418 1417 1416 1414 1413 1412 1411 1409 1408 1407 1406 1404 1403 1402 1400 1399 1397 1396 1394 1392 1391 1389 1388 1386 1385 1384 1383 1382 1381 1380 1379 1378 1377 1375 1374 1373
1485 1484 1483 1482 1481 1480 1479 1478 1477 1475 1474 1473 1472 1470 1468 1467 1465 1464 1463 1461 1459 1458 1456 1455 1454 1453 1452 1451 1449 1448 1447 1446 1445 1443 1442 1441 1440 1438 1436 1434 1433 1432 1430 1429 1427 1424 1422 1420 1419 1419 1418 1417 1416 1414 1413 1412 1411 1409 1408 1407 1405 1404 1403 1401 1400 1398 1397 1395 1393 1392 1390 1388 1387 1386 1384 1383 1382 1381 1381 1380 1379 1378 1376 1375 1374 1373
1485 1484 1483 1482 1481 1480 1479 1478 1477 1475 1474 1473 1471 1470 1468 1467 1466 1464 1463 1461 1459 1458 1457 1455 1454 1453 1453 1452 1451 1450 1448 1447 1445 1444 1443 1442 1440 1438 1437 1435 1434 1432 1431 1430 1430 1428 1425 1422 1419 1418 1417 1417 1416 1414 1413 1412 1411 1409 1408 1406 1405 1404 1402 1401 1399 1398 1396 1394 1393 1391 1390 1388 1387 1385 1384 1383 1382 1381 1380 1379 1379 1378 1376 1375 1374 1373
1485 1484 1483 1482 1481 1480 1479 1478 1476 1475 1474 1473 1471 1470 1468 1467 1466 1464 1463 1461 1460 1458 1457 1456 1455 1454 1453 1452 1452 1451 1450 1448 1447 1445 1444 1442 1441 1439 1437 1436 1434 1433 1431 1430 1429 1429 1427 1425 1422 1419 1417 1417 1416 1415 1413 1412 1411 1409 1408 1407 1405 1403 1402 1401 1399 1397 1395 1394 1392 1390 1389 1387 1386 1385 1384 1383 1382 1381 1380 1379 1378 1378 1377 1376 1374 1373
1485 1484 1483 1482 1481 1479 1478 1477 1476 1475 1474 1472 1471 1470 1468 1467 1466 1464 1463 1461 1460 1458 1457 1456 1455 1454 1453 1452 1452 1451 1450 1449 1448 1446 1444 1443 1441 1439 1438 1436 1434 1433 1431 1430 1429 1428 1427 1425 1423 1421 1418 1417 1416 1415 1414 1412 1411 1410 1408 1407 1405 1404 1402 1400 1398 1397 1395 1393 1391 1390 1388 1387 1386 1384 1383 1383 1382 1381 1380 1379 1378 1378 1377 1376 1375 1373
1484 1483 1483 1481 1480 1479 1478 1477 1476 1474 1473 1472 1471 1470 1468 1467 1466 1464 1463 1461 1460 1458 1457 1456 1455 1455 1454 1453 1452 1451 1450 1449 1448 1446 1445 1443 1442 1440 1438 1437 1435 1433 1432 1431 1429 1428 1426 1425 1423 1422 1420 1418 1416 1415 1414 1413 1411 1410 1409 1408 1406 1404 1402 1400 1398 1396 1394 1393 1391 1389 1388 1387 1385 1384 1383 1383 1382 1381 1380 1379 1379 1378 1377 1376 1375 1374
1484 1483 1482 1481 1479 1478 1477 1476 1475 1474 1473 1472 1471 1470 1468 1467 1466 1464 1462 1461 1460 1458 1458 1457 1456 1455 1455 1454 1453 1452 1451 1450 1448 1447 1445 1444 1442 1441 1439 1437 1436 1434 1433 1431 1430 1428 1427 1425 1424 1423 1421 1419 1416 1414 1413 1412 1411 1410 1409 1408 1406 1404 1403 1401 1398 1397 1395 1393 1391 1389 1388 1387 1386 1385 1384 1383 1383 1382 1381 1380 1379 1378 1377 1376 1375 1374
1484 1483 1481 1480 1479 1478 1477 1476 1475 1474 1473 1472 1471 1470 1468 1467 1465 1464 1462 1461 1460 1459 1458 1457 1457 1456 1455 1455 1454 1453 1452 1450 1449 1448 1446 1444 1443 1441 1440 1438 1437 1435 1434 1432 1431 1429 1428 1426 1424 1423 1421 1420 1418 1416 1413 1412 1410 1409 1408 1407 1406 1404 1403 1401 1399 1397 1395 1393 1392 1390 1388 1387 1386 1385 1384 1384 1383 1382 1381 1380 1379 1378 1377 1376 1375 1374
1483 1482 1481 1480 1479 1478 1477 1476 1475 1473 1473 1472 1471 1469 1468 1467 1466 1464 1463 1461 1460 1459 1458 1458 1457 1457 1456 1456 1455 1454 1453 1451 1450 1448 1447 1445 1443 1442 1440 1439 1437 1436 1435 1433 1432 1430 1428 1427 1425 1423 1421 1420 1418 1417 1415 1413 1411 1409 1408 1407 1406 1404 1403 1401 1399 1397 1395 1394 1392 1391 1389 1388 1387 1386 1385 1384 1383 1382 1381 1380 1379 1378 1377 1376 1375 1374
1483 1482 1481 1479 1478 1478 1477 1476 1475 1474 1473 1472 1471 1470 1468 1468 1466 1464 1463 1461 1460 1459 1458 1458 1458 1457 1457 1456 1455 1454 1453 1452 1450 1449 1447 1445 1444 1442 1441 1439 1438 1436 1435 1434 1433 1431 1429 1428 1426 1424 1423 1420 1418 1417 1416 1414 1412 1410 1408 1407 1405 1404 1403 1401 1399 1398 1396 1394 1393 1391 1390 1388 1388 1386 1385 1384 1383 1382 1380 1379 1378 1377 1376 1375 1374 1373
1482 1481 1480 1479 1478 1478 1477 1476 1475 1474 1473 1472 1471 1470 1469 1468 1466 1465 1463 1462 1460 1459 1459 1458 1458 1458 1457 1456 1455 1454 1453 1452 1451 1449 1448 1446 1444 1443 1441 1439 1438 1437 1435 1434 1433 1431 1430 1428 1427 1426 1424 1422 1420 1418 1416 1414 1413 1410 1408 1406 1404 1403 1402 1401 1399 1398 1396 1395 1393 1392 1390 1389 1388 1387 1386 1384 1383 1382 1381 1379 1378 1377 1376 1374 1373 1372
1482 1481 1480 1479 1479 1478 1477 1477 1476 1475 1474 1473 1471 1470 1468 1467 1466 1464 1463 1462 1461 1460 1459 1458 1458 1458 1457 1456 1456 1455 1453 1452 1451 1449 1448 1446 1445 1443 1441 1440 1438 1437 1435 1434 1433 1432 1430 1429 1428 1426 1424 1423 1421 1419 1417 1415 1413 1411 1409 1407 1405 1403 1403 1401 1400 1398 1397 1395 1393 1392 1391 1390 1388 1387 1386 1385 1384 1383 1381 1380 1378 1377 1376 1375 1373 1372
1482 1481 1480 1479 1479 1478 1478 1477 1476 1475 1474 1473 1472 1470 1468 1467 1466 1464 1463 1462 1461 1460 1459 1459 1458 1458 1457 1457 1456 1455 1454 1453 1451 1450 1448 1447 1445 1443 1442 1440 1438 1437 1435 1434 1433 1432 1431 1429 1428 1426 1425 1423 1421 1419 1417 1415 1414 1412 1410 1408 1406 1404 1402 1401 1400 1399 1397 1395 1394 1393 1392 1390 1389 1388 1387 1385 1384 1383 1382 1381 1379 1378 1377 1375 1374 1373
1482 1481 1480 1480 1479 1478 1478 1477 1476 1475 1474 1473 1472 1470 1469 1468 1466 1465 1463 1462 1461 1461 1460 1459 1458 1458 1458 1457 1456 1455 1454 1453 1451 1450 1448 1447 1445 1443 1442 1440 1439 1437 1435 1434 1433 1431 1431 1429 1428 1427 1425 1423 1422 1420 1418 1415 1413 1412 1410 1408 1407 1404 1402 1401 1400 1398 1398 1396 1395 1393 1392 1391 1390 1388 1387 1386 1385 1383 1382 1381 1380 1378 1377 1376 1374 1373
1482 1481 1481 1480 1479 1478 1478 1477 1476 1475 1474 1473 1472 1471 1469 1468 1467 1465 1464 1463 1462 1461 1461 1460 1459 1458 1458 1457 1456 1455 1454 1453 1451 1450 1448 1447 1445 1443 1442 1441 1439 1437 1435 1434 1432 1431 1430 1429 1428 1427 1425 1423 1422 1420 1418 1416 1414 1412 1410 1409 1408 1406 1404 1403 1401 1399 1398 1396 1395 1394 1393 1391 1390 1389 1388 1386 1385 1384 1383 1381 1380 1379 1378 1376 1374 1373
1483 1482 1481 1480 1479 1478 1478 1477 1476 1475 1474 1473 1472 1471 1470 1468 1467 1466 1465 1464 1463 1462 1461 1460 1459 1458 1457 1456 1455 1454 1453 1452 1450 1449 1448 1446 1445 1443 1442 1440 1439 1437 1436 1434 1433 1432 1430 1428 1427 1426 1425 1423 1422 1420 1418 1416 1414 1412 1411 1409 1408 1407 1405 1404 1402 1400 1398 1397 1395 1394 1393 1392 1390 1389 1388 1386 1385 1384 1383 1381 1380 1378 1377 1376 1374 1373
1483 1482 1481 1480 1479 1479 1478 1477 1477 1476 1475 1473 1473 1471 1470 1469 1468 1467 1465 1464 1463 1462 1461 1460 1459 1458 1456 1455 1454 1453 1451 1450 1449 1448 1447 1445 1444 1443 1441 1440 1438 1437 1436 1434 1433 1432 1431 1429 1428 1426 1424 1423 1422 1420 1419 1417 1414 1413 1411 1409 1408 1406 1405 1404 1403 1401 1399 1398 1396 1394 1393 1392 1390 1389 1388 1386 1385 1384 1383 1381 1380 1378 1377 1375 1374 1372
1483 1482 1481 1480 1480 1479 1478 1478 1477 1476 1475 1474 1473 1472 1471 1469 1468 1467 1466 1465 1464 1463 1461 1460 1459 1458 1456 1455 1453 1452 1451 1449 1448 1447 1445 1444 1443 1442 1441 1439 1438 1437 1436 1434 1433 1432 1431 1429 1428 1426 1424 1423 1421 1419 1418 1417 1415 1413 1411 1409 1408 1406 1405 1403 1403 1401 1400 1398 1397 1395 1393 1392 1390 1389 1388 1386 1385 1384 1383 1381 1380 1378 1377 1375 1374 1372
1483 1483 1482 1481 1480 1479 1478 1478 1477 1476 1475 1474 1473 1472 1471 1470 1469 1468 1466 1465 1464 1463 1462 1460 1459 1458 1457 1455 1454 1453 1451 1450 1448 1446 1445 1443 1442 1441 1440 1439 1438 1436 1435 1434 1433 1432 1431 1430 1428 1427 1425 1423 1421 1419 1418 1416 1415 1413 1411 1409 1408 1406 1405 1404 1403 1402 1400 1399 1398 1396 1394 1392 1391 1389 1388 1386 1385 1383 1382 1381 1380 1378 1377 1375 1373 1372
1484 1483 1482 1481 1480 1480 1479 1478 1477 1476 1475 1474 1473 1473 1472 1471 1469 1468 1467 1466 1464 1463 1462 1461 1459 1458 1457 1456 1454 1453 1452 1450 1449 1447 1445 1444 1442 1441 1439 1438 1437 1435 1434 1433 1432 1432 1431 1430 1429 1427 1426 1424 1422 1420 1418 1416 1415 1413 1412 1410 1408 1407 1405 1404 1403 1402 1400 1399 1398 1396 1395 1393 1392 1390 1388 1386 1384 1383 1382 1381 1379 1378 1377 1375 1373 1372
1484 1483 1483 1482 1481 1480 1479 1478 1477 1476 1475 1475 1474 1473 1472 1471 1470 1469 1468 1466 1465 1464 1463 1461 1460 1458 1457 1456 1455 1453 1452 1451 1449 1448 1446 1444 1443 1441 1439 1438 1436 1434 1433 1431 1430 1429 1429 1428 1428 1428 1427 1425 1423 1421 1418 1416 1414 1413 1412 1410 1408 1407 1405 1404 1403 1402 1400 1399 1398 1396 1395 1393 1392 1390 1388 1387 1385 1383 1382 1380 1379 1378 1376 1375 1373 1371
1485 1484 1483 1482 1481 1480 1479 1478 1478 1477 1476 1475 1474 1473 1473 1472 1470 1469 1468 1467 1465 1464 1463 1462 1460 1459 1458 1456 1455 1454 1453 1451 1449 1448 1446 1445 1443 1442 1440 1438 1436 1434 1433 1431 1429 1428 1427 1426 1426 1426 1426 1426 1424 1422 1419 1417 1414 1413 1411 1410 1408 1407 1405 1404 1403 1402 1401 1399 1398 1396 1395 1393 1392 1390 1389 1387 1385 1383 1382 1380 1379 1377 1376 1374 1372 1370